DELTA 1 DEB, 10709

Orbit data source: Space-Track

DELTA 1 DEB, 10709 is space debris in SSO originally from a launch on Thu, 29 Jul 1976 UTC launched from the Air Force Western Test Range (AFWTR). Debris objects in space refer to the collection of defunct objects orbiting the Earth. Examples of debris include non-operational satellites, rocket bodies, and fragments generated from explosions, collisions, or faulty payload assembly.

Loading next visibility...
Identifier
10709, 1976-077AE
Orbit
SSO
Country
Flag of USUS
Related business
Manufacturer
Unknown
Mission
Spacecraft
Bus & Motor
Unknown
Mass
Unknown
Launch date (UTC)
1976-07-29 (50 years ago)
Launch vehicle
Unknown
Launch site
Air Force Western Test Range (AFWTR)
Object type
Payload
Rocket body
Debris
Shape & HBR
Unknown shape, 0.1 m
Radar Cross Section
Medium (>0.1 m² and <1 m²)

Expand to show TLE details & history
Last TLE update: 1 day ago

TLE from 1 day ago
0 DELTA 1 DEB
1 10709U 76077AE  26255.13157343 -.00000346  00000-0 -20708-2 0  9995
2 10709 101.9144 322.5167 0019835 355.9614  31.5135 12.46477507276864
Epoch: 2026-09-12T03:09Z
TLE epoch observation values (Epoch: 2026-09-12T03:09:27.944Z)
Latitude
26.98797°
Longitude
-82.13275°
Altitude
1,468.972 km
Speed
7.137 km/s
True Right ascension
21h 05m 30s
True Declination
26° 51' 42"
Sunlit
Object was in full shadow at epoch
Visualization orbit readout
Latitude
Unknown
Longitude
Unknown
Altitude
Unknown
Speed
Unknown
Apparent Right ascension
Unknown
Apparent Declination
Unknown
Sunlit
N/A
Visualization observer readout
Local Sidereal Time
21:45:35
Azimuth
Unknown
Elevation
Unknown
Doppler factor
Unknown
Orbital elements
Apogee altitude
1,492.405 km
Perigee altitude
1,461.244 km
Semi-major axis
7,854.961 km
Eccentricity
0.00198
Inclination
101.9144°
RAAN
322.5167°
Arg. of periapsis
355.9614°
True anomaly
31.63256°
Mean anomaly
31.5135°
Eccentric anomaly
31.573°
Mean motion
3.11765 °/min
Orbital period
115.47 mins
BSTAR
-0.0020708
Loading maneuver chart data...
Computing Atmospheric mass density...
Loading historical data...
Loading historical data...
Loading historical data...
Loading historical data...
Loading historical data...
Loading historical data...
Loading historical data...

Documentation

Showing up to 5 results
|